www.pogodaiklimat.ru

Погода и климат >> Архив погоды >> Россия >> Владимирская область >> Ковров


ПОГОДА в Коврове

  • Прогноз погоды в Коврове
  • Монитор погоды в Коврове

АРХИВ ПОГОДЫ в Коврове

Время (UTC), дата Ветер
(напр.,м/с)
 
Видим.   Явления Облачность Т
(С)
Тd
(С)
f
(%)
Тe
(С)
Тes
(С)
Комфортность P
(гПа)
Po
(гПа)
Тmin
(С)
Tmax
(С)
R
(мм)
R24
(мм)
S
(см)
21 12.07 штиль 0 н/о н/о +8.3 +7.2 93 +7 +7 1008.3 992.8
00 13.07 штиль 0 н/о н/о +7.0 +6.2 95 +6 +6 1007.4 991.8
03 13.07 С 1 н/о н/о +9.3 +7.4 88 +9 +9 1007.4 991.9 +6.8
06 13.07 СЗ 2 н/о н/о +11.7 +9.2 85 +11 +11 1007.7 992.4 +6.8
09 13.07 С 2 н/о н/о +11.7 +9.2 85 +11 +11 1008.2 992.9
12 13.07 СВ 1 н/о н/о +14.9 +8.8 67 +15 +15 1008.5 993.3
15 13.07 С 1 н/о н/о +17.3 +7.0 51 +18 +18 1008.6 993.5 +17.3 0.5
18 13.07 штиль 0 н/о н/о +12.0 +9.2 83 +11 +11 1009.5 994.2 0.5
21 13.07 штиль 0 н/о н/о +10.7 +9.2 90 +10 +10 1009.8 994.3
00 14.07 штиль 0 н/о н/о +8.0 +7.0 93 +7 +7 1010.4 994.8
03 14.07 штиль 0 н/о н/о +13.2 +9.8 80 +13 +13 1010.4 995.1 +7.6
06 14.07 С 2 н/о н/о +17.6 +6.7 49 +18 +18 1010.3 995.2 +7.6
09 14.07 З 2 н/о н/о +18.1 +6.4 46 +19 +19 1010.3 995.2
12 14.07 З 2 н/о н/о +19.9 +7.0 43 +21 +21 комфорт 1009.9 994.9
15 14.07 СЗ 3 н/о н/о +19.3 +7.4 46 +20 +20 1010.1 995.1 +21.1
18 14.07 штиль 0 н/о н/о +16.2 +9.8 66 +16 +16 1010.6 995.5
21 14.07 штиль 0 н/о н/о +11.1 +9.0 87 +10 +10 1011.1 995.7
00 15.07 штиль 0 н/о н/о +8.8 +7.7 93 +8 +8 1011.1 995.5
03 15.07 штиль 0 н/о н/о +12.5 +9.5 82 +12 +12 1011.1 995.8 +8.1
06 15.07 С 1 н/о н/о +18.1 +8.4 53 +19 +19 1010.7 995.6 +8.1
09 15.07 СЗ 2 н/о н/о +21.0 +6.8 40 +23 +23 комфорт 1009.9 995.0
12 15.07 СЗ 2 н/о н/о +22.1 +6.7 37 +23 +23 комфорт 1009.6 994.8
15 15.07 З 2 н/о н/о +20.4 +7.7 44 +22 +22 комфорт 1010.0 995.1 +22.7
18 15.07 З 1 н/о н/о +17.6 +10.7 64 +19 +19 1010.4 995.4
21 15.07 ЮЗ 1 н/о н/о +16.2 +12.2 77 +17 +17 1010.6 995.4
00 16.07 штиль 0 н/о н/о +12.7 +11.0 89 +12 +12 1011.0 995.7
03 16.07 ЮЗ 1 н/о н/о +14.7 +11.2 80 +15 +15 1011.7 996.5 +11.6
06 16.07 ЮЗ 3 н/о н/о +19.1 +10.4 57 +20 +20 1011.7 996.7 +11.6
09 16.07 Ю 2 н/о н/о +22.7 +10.5 46 +25 +25 комфорт 1011.1 996.3
12 16.07 ЮЗ 1 н/о н/о +22.5 +11.2 49 +25 +25 комфорт 1011.0 996.1
15 16.07 В 2 н/о н/о +22.8 +10.2 45 +25 +25 комфорт 1010.1 995.3 +23.8
18 16.07 ЮВ 2 н/о н/о +19.7 +12.0 61 +22 +22 комфорт 1010.6 995.6
21 16.07 ЮВ 2 н/о н/о +17.8 +10.5 62 +18 +18 1010.2 995.2
00 17.07 ЮВ 2 н/о н/о +16.0 +10.8 71 +16 +16 1009.9 994.8
03 17.07 ЮВ 2 н/о н/о +17.4 +11.2 67 +18 +18 1009.5 994.4 +14.3
06 17.07 В 5 н/о н/о +21.0 +11.8 56 +23 +23 комфорт 1008.6 993.8 +14.3
09 17.07 ЮВ 3 н/о н/о +21.0 +12.0 56 +24 +24 комфорт 1009.2 994.3
12 17.07 В 2 н/о н/о +17.4 +15.0 86 +18 +18 1008.9 993.9
15 17.07 В 2 н/о н/о +16.5 +14.7 89 +17 +17 1007.1 992.1 +21.5 1
18 17.07 В 2 н/о н/о +16.0 +14.7 92 +16 +16 1006.6 991.6 2
21 17.07 В 2 н/о н/о +16.1 +15.2 94 +16 +16 1004.9 989.9
00 18.07 В 2 н/о н/о +15.9 +15.0 94 +16 +16 1003.6 988.6
03 18.07 ЮВ 2 н/о н/о +16.2 +15.2 94 +16 +16 1003.9 988.9 +15.8 19
06 18.07 Ю 3 н/о н/о +18.0 +15.5 85 +18 +18 1004.3 989.4 +15.8 18
09 18.07 Ю 3 н/о н/о +20.2 +15.5 74 +23 +23 комфорт 1004.9 990.0
12 18.07 Ю 3 н/о н/о +22.7 +13.7 57 +26 +26 жарко 1005.0 990.3
15 18.07 Ю 3 н/о н/о +23.1 +12.5 51 +26 +26 жарко 1005.3 990.6 +23.5
18 18.07 СВ 1
{12}
н/о н/о +17.3 +11.7 70 +18 +18 1006.1 991.1

 

Местоположение метеостанции Ковров (Владимирская область, Россия): широта 56.36 долгота 41.35 высота над уровнем моря 129 м.

В архиве по умолчанию представлена погода в Коврове за последнюю неделю. Архивные данные за месяц целиком и за предыдущие месяцы, начиная с января 2011 года, Вы можете получить, выбрав интересующий диапазон дат из раскрывающегося списка и нажав кнопку "Ввод!".


*Определитесь, кто Вы:
робот инопланетянин человек

Внимание! Время в таблицах - всемирное. Для получения местного времени необходимо прибавить поправку, которая равна 3 ч.

Смотрите также архив погоды в соседних городах и на ближайших метеорологических станциях:

Погода в Вязниках (Владимирская область, Россия) (54 км)
Погода в Шуе (Ивановская область, Россия) (55 км)
Погода в Суздале (Владимирская область, Россия) (55 км)
Погода в Пешном (Атырауская область, Казахстан) (65 км)
Погода в Владимире (Владимирская область, Россия) (67 км)
Погода в Иванове (Ивановская область, Россия) (70 км)
Погода в Тейково (Ивановская область, Россия) (74 км)
Погода в Муроме (Владимирская область, Россия) (95 км)
Погода в Гусь-Хрустальный (Владимирская область, Россия) (95 км)
Погода в Вичуге (Ивановская область, Россия) (102 км)

Пояснения к столбцам:

Ветер - указаны скорость ветра в м/с - средняя за 10 мин, порывы в срок и между сроками (в фигурных скобках) и направление, откуда дует ветер: С - северный, СВ - северо-восточный, В - восточный, ЮВ - юго-восточный, Ю - южный, ЮЗ - юго-западный, З - западный, СЗ - северо-западный.
Видимость - горизонтальная дальность видимости в метрах или километрах. При видимости от 1 до 10 км при отсутствии осадков обычно наблюдается дымка, при ухудшении видимости до 1 км и менее - туман. В сухую погоду видимость может ухудшаться дымом, пылью или мглою.
Явления - указаны атмосферные явления, наблюдавшиеся в срок или в последний час перед сроком; фигурными скобками обозначены явления, наблюдавшиеся между сроками (за 1-3 часа до срока); квадратными скобками обозначены град или гололедные отложения с указанием их диаметра в мм.
Облачность - указаны через наклонную черту общая и нижняя облачность в баллах и высота нижней границы облаков в метрах; квадратными скобками обозначены формы облаков: Ci - перистые, Cs - перисто-слоистые, Cc - перисто-кучевые, Ac - высококучевые, As - высокослоистые, Sc - слоисто-кучевые, Ns - слоисто-дождевые, Cu - кучевые, Cb - кучево-дождевые. Подробнее классификацию облаков см. в Атласе облаков (PDF).
T - Температура воздуха - температура, измеренная на высоте 2 м над землей.
Td - Температура точки росы - температура, при понижении до которой содержащийся в воздухе водяной пар достигнет насыщения.
f - Относительная влажность воздуха - влажноcть воздуха, измеренная на высоте 2 м над землей.
Te - Эффективная температура - температура, которую ощущает одетый по сезону человек в тени. Характеристика душности погоды. При расчете учитывается влияние влажности воздуха и скорости ветра на теплоощущения человека.
Tes - Эффективная температура на солнце - температура, которую ощущает человек, с поправкой на солнечный нагрев. Характеристика знойности погоды. Зависит от высоты солнца над горизонтом, облачности и скорости ветра. Ночью, в пасмурную погоду, а также при ветре 12 м/с и более поправка равна нулю.
P - Атмосферное давление - приведенное к уровню моря атмосферное давление.
Po - Атмосферное давление - измеренное на уровне метеостанции атмосферное давление.
Tmin - Минимальная температура - минимум температуры воздуха на высоте 2 м над землей.
Tmax - Максимальная температура - максимум температуры воздуха на высоте 2 м над землей.
R - Количество осадков - Количество выпавших осадков за период времени, мм. При наведении курсора мыши на число - период времени, за который выпало указанное количество осадков.
R24 - Количество осадков - Количество выпавших осадков за 24 часа, мм.
S - Снежный покров - Высота снежного покрова, см. При наведении курсора мыши на число - состояние снежного покрова и степень покрытия местности в баллах.